z/d,0,0,50,50,100,100,150,150,200,200,300,300,400,400,500,500,600,600,750,750,1000,1000,1250,1250,1500,1500,1750,1750,1900,1900,2000,2000
2019.02.06-01:00,.90,259.01,.84,256.88,1.25,262.31,1.03,255.84,.88,254.20,.94,246.22,.87,240.14,.73,257.12,.52,246.28,.42,245.81,.54,236.77,.47,217.72,.29,217.42,.03,220.93,.15,42.32,.10,20.73
2019.02.06-02:00,1.01,243.91,.97,242.69,1.29,259.44,1.11,253.40,.96,250.28,1.00,248.42,.93,244.78,.75,257.03,.54,242.75,.43,241.14,.55,238.36,.49,222.35,.32,221.45,.05,250.42,.14,25.43,.10,11.23
2019.02.06-03:00,1.22,235.65,1.19,235.93,1.33,256.95,1.19,252.84,1.05,248.16,1.03,249.46,.98,248.93,.78,255.80,.57,239.07,.46,236.23,.55,237.87,.52,225.90,.34,225.21,.09,263.00,.15,7.37,.10,1.57
2019.02.06-04:00,1.44,233.67,1.39,235.07,1.33,255.23,1.22,253.94,1.13,248.39,1.04,249.71,.99,252.46,.82,254.66,.61,236.30,.51,233.83,.57,236.64,.54,227.86,.37,226.48,.10,265.04,.16,.80,.11,356.79
2019.02.06-05:00,1.63,235.57,1.55,237.28,1.33,253.70,1.21,255.24,1.17,248.99,1.03,248.12,.95,253.84,.83,253.17,.66,234.20,.57,234.39,.60,236.79,.57,229.12,.38,225.85,.10,263.93,.18,5.84,.11,358.90
2019.02.06-06:00,1.80,240.24,1.67,241.78,1.35,252.91,1.18,256.03,1.16,248.74,1.01,244.74,.90,252.40,.82,251.00,.70,232.86,.60,236.15,.63,238.27,.57,230.22,.38,224.69,.08,262.12,.19,15.42,.11,5.44
2019.02.06-07:00,1.93,246.23,1.74,247.91,1.36,253.46,1.12,255.89,1.12,247.56,1.01,241.72,.85,249.67,.80,248.97,.72,232.43,.61,237.02,.63,239.41,.57,230.63,.38,223.65,.07,264.47,.20,22.97,.11,11.73
2019.02.06-08:00,2.00,251.92,1.76,254.32,1.34,255.02,1.06,255.11,1.07,246.78,1.02,242.19,.83,248.88,.79,249.27,.74,234.05,.60,236.88,.61,239.06,.55,229.22,.37,221.08,.05,263.23,.21,29.34,.11,17.34
2019.02.06-09:00,2.01,256.39,1.74,259.50,1.28,255.74,1.00,252.70,1.03,246.43,1.03,245.22,.82,249.73,.77,251.28,.74,237.71,.58,236.98,.58,238.17,.54,226.84,.36,217.21,.03,250.01,.21,35.53,.11,22.97
2019.02.06-10:00,2.01,259.86,1.71,263.63,1.24,255.60,1.00,249.05,1.00,245.79,1.03,247.77,.81,249.23,.73,251.39,.72,240.97,.57,236.70,.56,237.77,.52,225.33,.36,214.84,.02,241.70,.21,37.79,.11,26.17
2019.02.06-11:00,1.92,262.91,1.61,267.43,1.25,256.55,1.08,247.75,1.02,246.17,1.03,249.48,.82,247.99,.70,249.26,.70,242.81,.56,235.50,.54,237.32,.51,224.88,.35,214.16,.02,245.38,.20,36.06,.11,26.73
2019.02.06-12:00,1.70,265.50,1.43,270.92,1.26,259.75,1.17,250.01,1.05,248.52,1.04,251.68,.87,249.35,.71,247.71,.70,244.34,.58,234.91,.53,236.09,.52,225.05,.37,214.30,.03,229.65,.18,32.86,.10,26.15
2019.02.06-13:00,1.45,266.43,1.21,272.11,1.22,263.09,1.21,252.38,1.07,250.49,1.06,253.76,.93,253.63,.74,247.84,.71,246.28,.62,236.27,.54,235.15,.55,226.46,.41,216.30,.07,225.74,.14,25.67,.09,23.23
2019.02.06-14:00,1.31,265.69,1.08,269.27,1.16,264.53,1.22,253.58,1.12,251.38,1.10,255.40,.96,258.92,.77,248.72,.71,247.85,.65,238.73,.56,234.97,.58,228.58,.45,219.31,.12,227.08,.11,12.85,.07,17.75
2019.02.06-15:00,1.29,265.87,1.06,263.04,1.15,263.20,1.24,254.10,1.20,251.43,1.14,256.40,.95,262.72,.78,248.81,.72,247.97,.69,240.91,.58,235.44,.60,231.05,.48,222.84,.15,231.13,.09,356.83,.06,10.08
2019.02.06-16:00,1.34,266.70,1.14,257.56,1.18,260.73,1.26,254.70,1.27,250.95,1.16,257.12,.90,264.05,.80,247.84,.73,246.45,.72,241.98,.60,235.91,.61,233.80,.49,227.09,.17,237.89,.10,342.86,.06,1.04
2019.02.06-17:00,1.48,268.86,1.26,256.06,1.24,258.50,1.25,255.29,1.31,250.14,1.17,257.64,.85,262.90,.80,245.84,.74,243.24,.73,241.18,.61,235.71,.61,236.40,.49,231.85,.18,246.64,.11,335.90,.06,354.26
2019.02.06-18:00,1.60,271.77,1.37,258.83,1.29,256.48,1.22,255.21,1.31,248.84,1.16,257.56,.78,259.15,.79,242.66,.74,239.24,.72,239.11,.62,235.12,.61,238.60,.47,236.86,.19,257.11,.14,335.92,.07,351.46
2019.02.06-19:00,1.62,273.49,1.44,262.49,1.32,253.74,1.18,252.78,1.29,246.20,1.12,256.37,.72,253.31,.78,239.55,.75,237.30,.72,238.48,.61,234.68,.58,239.91,.44,241.18,.18,269.00,.16,344.00,.08,354.34
2019.02.06-20:00,1.54,275.70,1.46,266.88,1.39,252.15,1.18,248.96,1.28,243.28,1.07,254.71,.68,247.71,.78,238.54,.77,238.76,.71,240.78,.60,234.04,.53,238.85,.39,242.50,.14,282.78,.18,.81,.08,4.76
2019.02.06-21:00,1.46,280.83,1.45,271.79,1.46,253.80,1.22,246.79,1.30,242.92,1.08,254.68,.68,243.97,.78,238.73,.77,241.08,.69,243.75,.58,232.56,.47,234.60,.32,240.40,.11,304.18,.21,17.28,.09,17.16
2019.02.06-22:00,1.48,287.37,1.44,276.42,1.50,258.69,1.28,247.63,1.34,245.93,1.12,256.71,.69,241.61,.78,237.79,.75,241.91,.63,244.83,.54,229.56,.43,228.27,.28,237.30,.10,326.17,.25,24.21,.10,23.46
2019.02.06-23:00,1.54,288.34,1.44,277.21,1.51,263.37,1.35,249.52,1.37,249.82,1.14,259.14,.72,240.77,.80,237.51,.74,243.28,.59,245.52,.53,226.84,.42,221.87,.26,233.55,.11,341.39,.27,27.06,.11,27.12
2019.02.06-24:00,1.53,281.68,1.45,272.48,1.51,265.32,1.45,252.05,1.39,253.05,1.14,260.42,.76,240.89,.84,238.41,.75,245.13,.57,246.07,.53,225.19,.44,217.98,.25,231.29,.13,348.20,.29,27.18,.11,29.52
2019.02.07-01:00,1.43,270.62,1.49,265.89,1.48,265.04,1.55,255.84,1.41,256.01,1.17,260.90,.81,242.92,.90,239.11,.75,245.32,.55,244.30,.54,223.30,.47,217.97,.27,233.67,.14,340.83,.28,21.96,.11,27.92
2019.02.07-02:00,1.43,259.73,1.63,261.27,1.44,261.98,1.60,259.15,1.45,258.24,1.22,260.87,.88,245.61,.97,240.33,.77,244.94,.54,241.29,.56,222.97,.51,219.87,.28,236.86,.15,332.54,.26,15.46,.11,24.88
2019.02.07-03:00,1.55,255.50,1.77,260.25,1.48,259.02,1.63,261.34,1.51,260.01,1.26,259.90,.93,245.84,1.05,241.53,.81,244.46,.57,238.73,.59,225.45,.55,222.65,.29,238.82,.15,326.72,.24,10.24,.10,22.02
2019.02.07-04:00,1.65,257.17,1.83,262.07,1.57,259.70,1.62,262.53,1.59,261.93,1.28,258.62,.96,243.52,1.11,242.27,.84,243.36,.62,236.82,.63,229.10,.58,225.94,.30,240.06,.14,320.61,.22,5.55,.09,17.84
2019.02.07-05:00,1.68,259.41,1.82,264.45,1.62,262.07,1.58,261.67,1.61,263.02,1.30,258.43,1.01,241.01,1.17,243.55,.88,242.54,.68,235.89,.68,232.64,.60,229.00,.29,240.66,.14,317.34,.21,3.03,.08,13.58
2019.02.07-06:00,1.65,258.00,1.80,264.77,1.60,262.91,1.52,258.63,1.56,262.33,1.27,258.84,1.04,237.79,1.18,244.28,.90,241.37,.72,234.96,.72,235.80,.61,232.52,.28,243.75,.15,316.35,.23,358.38,.08,7.16
2019.02.07-07:00,1.60,252.33,1.76,261.65,1.55,261.02,1.50,254.89,1.49,260.10,1.18,258.56,1.06,234.16,1.17,244.88,.92,240.94,.76,234.86,.73,239.21,.59,235.61,.26,247.27,.18,320.24,.26,356.57,.09,3.43
2019.02.07-08:00,1.57,247.32,1.73,257.13,1.54,258.64,1.50,251.96,1.44,257.66,1.07,257.35,1.10,232.69,1.14,246.59,.92,242.45,.78,236.03,.73,242.57,.57,236.63,.24,245.70,.18,327.45,.28,.61,.09,7.11
2019.02.07-09:00,1.56,247.88,1.72,255.61,1.59,258.21,1.54,251.00,1.44,256.66,.99,256.13,1.13,233.33,1.08,248.43,.88,244.31,.78,236.61,.68,244.63,.53,235.26,.22,238.88,.16,334.44,.29,5.77,.09,13.50
2019.02.07-10:00,1.52,253.30,1.70,258.14,1.67,258.01,1.64,251.67,1.48,256.57,.95,253.41,1.16,234.43,1.02,249.56,.81,245.19,.76,236.19,.62,245.34,.50,232.69,.21,232.83,.16,339.47,.30,8.18,.10,17.31
2019.02.07-11:00,1.53,261.88,1.70,262.00,1.75,257.57,1.75,253.63,1.53,256.50,.93,248.52,1.20,235.61,.98,250.31,.75,244.97,.74,235.51,.57,244.75,.47,229.75,.22,229.77,.17,342.43,.32,8.36,.11,18.66
2019.02.07-12:00,1.54,269.04,1.70,264.72,1.78,258.30,1.82,256.47,1.57,257.14,.96,244.57,1.25,237.89,.96,251.42,.71,244.14,.75,234.91,.53,242.84,.47,226.83,.24,227.65,.17,341.65,.32,7.52,.11,20.10
2019.02.07-13:00,1.51,267.31,1.70,262.80,1.75,258.19,1.83,257.56,1.59,257.98,1.05,242.22,1.32,240.99,.98,252.64,.70,242.19,.77,234.74,.52,241.72,.48,225.78,.26,228.65,.17,337.76,.32,5.37,.11,20.39
2019.02.07-14:00,1.52,258.31,1.73,257.21,1.69,256.31,1.81,256.61,1.57,257.90,1.16,240.49,1.38,243.52,1.01,253.28,.71,238.92,.80,235.43,.53,242.81,.50,227.47,.29,233.35,.17,331.66,.31,1.44,.10,18.50
2019.02.07-15:00,1.65,251.96,1.80,253.30,1.67,254.13,1.77,255.84,1.55,256.63,1.26,239.00,1.42,244.95,1.02,253.17,.76,235.70,.86,237.14,.54,245.11,.53,230.76,.31,238.79,.18,324.22,.29,356.53,.09,15.35
2019.02.07-16:00,1.72,251.41,1.85,252.75,1.72,253.02,1.74,255.63,1.56,255.02,1.37,238.29,1.44,245.47,1.04,252.55,.83,233.56,.91,239.12,.55,247.06,.54,234.33,.33,243.60,.20,317.02,.28,351.39,.08,11.28
2019.02.07-17:00,1.73,254.25,1.84,254.56,1.77,253.03,1.70,254.92,1.57,252.97,1.47,238.49,1.45,245.23,1.05,251.84,.90,232.57,.95,241.10,.53,247.90,.54,237.82,.34,247.72,.21,311.82,.27,346.74,.07,6.45
2019.02.07-18:00,1.73,255.14,1.83,255.22,1.78,251.39,1.67,252.05,1.57,248.83,1.55,238.54,1.44,244.46,1.04,250.92,.96,232.51,.98,243.90,.51,248.37,.53,241.67,.33,252.46,.23,313.06,.27,345.78,.07,4.32
2019.02.07-19:00,1.73,252.36,1.83,254.11,1.81,249.00,1.68,248.36,1.60,244.07,1.59,238.64,1.40,243.48,.99,248.87,1.01,232.48,.97,247.08,.47,247.84,.49,245.15,.30,258.68,.25,320.45,.29,348.80,.07,5.74
2019.02.07-20:00,1.74,248.82,1.85,253.38,1.86,248.63,1.73,245.89,1.64,241.32,1.61,239.19,1.34,242.84,.93,245.45,1.04,232.75,.92,249.79,.42,244.28,.43,246.69,.26,265.75,.28,331.12,.32,354.35,.08,9.29
2019.02.07-21:00,1.79,246.83,1.89,253.25,1.91,249.79,1.79,244.91,1.68,241.19,1.60,240.40,1.27,243.55,.88,242.20,1.06,234.34,.84,251.96,.38,237.04,.35,244.93,.20,272.75,.31,342.71,.36,.97,.09,13.65
2019.02.07-22:00,1.85,247.18,1.93,253.15,1.95,250.98,1.88,245.72,1.74,243.55,1.57,242.73,1.21,246.56,.83,240.89,1.04,237.32,.75,253.64,.35,227.29,.29,238.14,.15,276.22,.33,353.10,.39,7.23,.10,18.03
2019.02.07-23:00,1.89,248.75,1.96,253.58,1.98,251.63,1.96,247.92,1.78,246.50,1.52,245.28,1.16,251.21,.79,240.64,1.00,240.57,.66,254.34,.36,219.08,.27,228.54,.11,272.90,.33,1.73,.40,12.28,.11,21.41
2019.02.07-24:00,1.90,249.71,1.96,254.39,1.99,251.80,1.97,250.15,1.80,248.00,1.50,246.59,1.11,254.84,.76,238.65,.95,242.65,.59,253.45,.38,216.41,.28,224.04,.10,269.15,.33,7.43,.40,14.74,.11,21.33
2019.02.08-01:00,1.91,250.52,1.95,255.06,1.97,252.23,1.94,251.52,1.81,248.23,1.51,247.14,1.03,255.40,.75,234.36,.91,243.08,.54,250.47,.43,218.63,.30,226.60,.12,271.60,.33,9.89,.40,14.63,.10,17.40
2019.02.08-02:00,1.93,253.24,1.93,256.26,1.91,253.56,1.87,252.46,1.79,248.75,1.55,248.68,.98,253.22,.80,230.54,.91,242.01,.54,246.44,.48,222.61,.33,231.52,.15,274.00,.30,9.65,.38,12.65,.10,11.02
2019.02.08-03:00,1.92,255.66,1.89,257.69,1.82,254.39,1.80,252.91,1.76,249.92,1.59,251.39,.97,249.37,.88,228.84,.94,240.45,.58,242.97,.54,226.42,.36,236.21,.19,276.56,.28,6.10,.35,8.45,.09,2.47
2019.02.08-04:00,1.89,256.27,1.83,258.62,1.77,254.07,1.77,252.74,1.73,251.52,1.60,254.05,.98,244.12,.96,228.32,.99,239.63,.63,239.95,.61,229.71,.38,240.36,.22,279.86,.25,358.65,.33,2.04,.09,352.05
2019.02.08-05:00,1.89,253.06,1.79,255.74,1.77,250.95,1.75,250.50,1.72,251.56,1.59,255.39,1.00,236.94,1.03,227.90,1.03,240.24,.68,237.52,.66,233.77,.40,246.22,.26,286.74,.25,348.43,.33,354.38,.10,342.35
2019.02.08-06:00,1.92,248.88,1.79,250.53,1.83,247.60,1.79,247.98,1.71,249.74,1.55,255.48,1.06,230.22,1.09,228.30,1.05,241.80,.72,235.88,.69,238.24,.39,252.69,.28,295.74,.27,342.26,.35,350.21,.11,338.22
2019.02.08-07:00,1.96,246.61,1.84,247.59,1.89,247.02,1.85,247.15,1.70,246.97,1.47,254.04,1.16,226.05,1.16,230.23,1.07,243.86,.75,235.09,.70,242.52,.36,258.32,.27,305.47,.28,341.45,.36,350.67,.11,339.12
2019.02.08-08:00,2.04,245.70,1.93,247.44,1.93,248.04,1.88,247.52,1.72,244.03,1.37,249.96,1.26,224.36,1.21,233.45,1.07,246.09,.78,235.08,.67,247.35,.30,263.73,.23,318.48,.29,345.50,.35,355.39,.11,342.94
2019.02.08-09:00,2.13,245.83,2.02,248.48,1.95,249.19,1.87,248.32,1.73,241.67,1.31,243.90,1.35,224.38,1.22,236.74,1.04,247.54,.78,236.10,.63,252.76,.23,267.68,.20,334.63,.29,351.12,.35,1.63,.10,347.75
2019.02.08-10:00,2.20,247.43,2.09,250.32,1.97,250.65,1.82,249.34,1.74,240.57,1.32,238.50,1.41,225.38,1.21,239.39,.98,247.94,.76,237.41,.57,257.64,.17,267.44,.17,352.48,.30,356.06,.36,7.13,.10,352.46
2019.02.08-11:00,2.21,250.91,2.12,253.27,1.98,253.09,1.80,250.68,1.76,240.95,1.36,235.65,1.43,226.92,1.16,241.39,.92,247.32,.72,238.17,.50,260.83,.13,260.12,.14,6.52,.31,357.78,.37,9.51,.10,355.38
2019.02.08-12:00,2.16,255.48,2.09,256.82,1.98,256.36,1.82,252.95,1.76,243.01,1.42,236.07,1.43,229.21,1.12,242.90,.86,246.23,.67,238.10,.43,260.90,.12,246.38,.11,12.77,.32,356.45,.37,9.02,.10,356.77
2019.02.08-13:00,2.09,259.01,2.00,259.78,1.91,258.59,1.82,255.27,1.75,246.10,1.52,239.64,1.44,232.15,1.11,244.22,.82,245.69,.64,237.36,.39,257.63,.14,237.03,.07,.97,.32,352.91,.35,6.36,.10,357.02
2019.02.08-14:00,1.96,259.61,1.89,260.64,1.77,257.14,1.77,255.34,1.75,248.71,1.62,244.99,1.46,235.07,1.13,245.79,.81,246.13,.63,236.81,.37,253.37,.18,237.71,.07,313.16,.32,347.90,.33,1.66,.10,355.15
2019.02.08-15:00,1.80,258.39,1.76,259.85,1.67,253.06,1.71,253.58,1.73,250.03,1.67,249.79,1.47,237.17,1.14,247.30,.79,246.71,.63,236.53,.38,249.76,.23,244.32,.13,289.02,.32,340.91,.31,353.95,.09,349.96
2019.02.08-16:00,1.68,256.72,1.65,257.70,1.67,249.95,1.69,252.13,1.72,250.43,1.63,251.91,1.46,238.48,1.15,248.07,.78,245.94,.65,235.94,.40,247.15,.27,252.41,.20,289.06,.34,335.32,.31,346.47,.09,345.37
2019.02.08-17:00,1.64,255.46,1.60,255.45,1.74,249.56,1.71,251.65,1.73,250.03,1.54,250.26,1.45,238.72,1.13,247.35,.76,242.55,.67,235.31,.41,246.16,.31,262.13,.27,297.79,.37,332.34,.32,341.03,.09,342.95
2019.02.08-18:00,1.62,254.68,1.58,254.36,1.77,250.96,1.74,251.60,1.74,249.06,1.47,246.32,1.40,238.41,1.10,246.21,.75,238.40,.69,236.30,.43,247.19,.34,272.69,.32,308.76,.40,332.15,.34,338.81,.10,343.09
2019.02.08-19:00,1.64,252.69,1.60,252.32,1.80,251.79,1.80,251.25,1.75,247.75,1.44,242.36,1.34,238.74,1.07,246.38,.77,236.59,.72,239.81,.44,250.26,.34,284.32,.36,321.80,.42,336.36,.36,341.94,.10,348.04
2019.02.08-20:00,1.70,250.49,1.67,250.38,1.85,252.73,1.89,252.26,1.78,247.52,1.46,239.86,1.27,240.27,1.02,247.94,.78,237.09,.71,244.46,.42,253.99,.32,296.73,.37,335.51,.43,343.10,.37,348.04,.10,356.22
2019.02.08-21:00,1.80,250.02,1.76,249.90,1.89,254.02,1.95,254.67,1.79,248.56,1.51,239.12,1.19,242.77,.96,249.95,.77,238.41,.67,248.75,.39,258.30,.28,310.09,.37,348.32,.44,350.29,.38,354.10,.10,3.32
2019.02.08-22:00,1.90,251.90,1.85,251.12,1.92,254.77,1.94,257.13,1.79,250.38,1.56,240.06,1.10,245.80,.89,252.08,.75,239.89,.61,251.94,.34,263.70,.26,321.39,.37,358.45,.45,356.40,.40,358.15,.10,6.92
2019.02.08-23:00,1.92,254.19,1.90,252.95,1.96,254.96,1.89,258.86,1.76,252.79,1.57,242.87,1.00,249.25,.82,254.71,.72,241.43,.55,254.02,.30,270.11,.23,326.62,.36,5.49,.44,1.20,.41,.17,.10,8.48
2019.02.08-24:00,1.90,255.86,1.91,254.62,2.00,255.77,1.82,260.05,1.71,255.10,1.53,246.78,.93,252.45,.75,256.68,.69,242.06,.51,255.29,.28,277.89,.23,326.72,.33,8.66,.43,4.01,.41,.11,.10,8.93
2019.02.09-01:00,1.90,257.48,1.93,256.82,2.01,257.75,1.77,260.92,1.65,256.74,1.46,251.05,.89,255.41,.71,257.21,.68,242.36,.49,256.80,.27,286.08,.26,326.38,.31,8.25,.40,5.56,.39,359.48,.10,9.16
2019.02.09-02:00,1.94,258.81,1.98,259.51,2.03,260.45,1.74,261.79,1.59,258.34,1.37,256.01,.88,259.53,.70,257.85,.72,244.16,.52,259.39,.28,291.56,.28,326.74,.28,5.19,.35,7.26,.36,359.83,.09,10.33
2019.02.09-03:00,1.96,258.93,2.02,261.31,2.06,263.37,1.73,262.64,1.54,259.79,1.28,260.66,.88,264.25,.71,259.13,.76,247.22,.58,262.56,.30,293.08,.30,325.59,.25,355.71,.28,5.85,.30,358.16,.07,8.92
2019.02.09-04:00,1.98,257.62,2.04,260.63,2.05,265.66,1.74,263.55,1.47,260.12,1.23,264.00,.87,268.09,.74,260.51,.81,250.70,.65,265.49,.31,291.59,.33,323.10,.26,340.26,.22,356.44,.24,351.64,.06,.64
2019.02.09-05:00,1.97,256.35,1.99,258.23,1.96,266.38,1.74,265.27,1.42,259.07,1.20,266.18,.85,269.74,.77,261.22,.84,253.90,.72,268.18,.34,288.76,.36,320.51,.30,327.42,.19,336.45,.19,338.86,.04,342.26
2019.02.09-06:00,1.96,255.72,1.96,256.28,1.86,265.25,1.73,266.83,1.42,257.78,1.19,267.85,.85,268.92,.82,261.31,.86,256.80,.76,271.67,.38,287.69,.39,320.61,.36,323.79,.20,321.26,.17,328.06,.04,324.51
2019.02.09-07:00,1.93,255.63,1.93,255.85,1.80,263.65,1.73,267.63,1.48,258.33,1.19,269.13,.85,266.91,.87,261.84,.86,259.84,.76,276.24,.41,288.68,.41,322.69,.40,325.41,.23,315.09,.16,321.76,.03,317.01
2019.02.09-08:00,1.88,256.47,1.90,256.66,1.76,262.44,1.71,267.72,1.53,260.70,1.17,269.96,.86,264.73,.88,263.03,.83,263.30,.73,280.71,.44,291.42,.42,325.29,.43,328.53,.27,312.63,.16,316.00,.03,314.36
2019.02.09-09:00,1.85,258.18,1.87,258.23,1.74,261.78,1.67,267.12,1.53,263.57,1.15,270.63,.87,263.53,.86,264.79,.77,267.61,.67,284.24,.45,296.04,.42,328.21,.44,332.63,.30,312.34,.18,311.13,.04,314.41
2019.02.09-10:00,1.86,259.73,1.87,259.67,1.75,261.39,1.64,266.37,1.54,266.15,1.15,271.79,.88,264.53,.83,267.68,.71,273.57,.63,287.37,.46,302.05,.43,330.70,.43,338.12,.34,314.17,.20,308.70,.04,315.27
2019.02.09-11:00,1.89,261.30,1.89,261.07,1.76,261.04,1.62,265.54,1.55,268.36,1.15,273.06,.87,267.37,.80,271.73,.67,281.34,.61,291.56,.46,308.15,.44,331.63,.42,342.57,.36,315.87,.22,305.58,.04,311.37
2019.02.09-12:00,1.90,264.40,1.90,263.92,1.78,261.60,1.59,264.65,1.55,270.44,1.17,273.73,.86,270.26,.77,275.61,.65,288.97,.61,296.98,.47,313.49,.46,331.95,.39,343.48,.38,316.32,.26,301.55,.04,301.16
2019.02.09-13:00,1.85,269.15,1.89,268.52,1.80,263.67,1.59,263.81,1.54,272.44,1.19,274.36,.87,272.26,.77,278.19,.65,294.19,.61,302.39,.46,318.10,.46,332.19,.37,340.31,.40,315.10,.30,297.65,.05,291.32
2019.02.09-14:00,1.79,275.29,1.89,274.10,1.81,267.00,1.63,263.33,1.51,273.87,1.22,275.87,.93,274.52,.82,280.11,.69,296.39,.63,306.97,.44,321.54,.45,332.11,.35,335.17,.41,312.98,.34,294.59,.06,284.22
2019.02.09-15:00,1.74,281.37,1.87,279.60,1.80,270.77,1.70,263.78,1.47,274.04,1.22,277.77,1.02,277.22,.91,282.43,.76,297.22,.67,310.63,.43,322.59,.43,330.02,.34,328.13,.41,309.62,.36,291.66,.07,279.23
2019.02.09-16:00,1.63,284.58,1.77,283.49,1.79,273.42,1.76,265.02,1.45,272.93,1.18,279.27,1.06,279.74,.97,285.43,.85,298.61,.71,313.51,.44,320.88,.44,325.40,.35,320.01,.41,305.40,.39,289.13,.07,276.01
2019.02.09-17:00,1.44,283.07,1.63,284.53,1.76,274.39,1.78,266.37,1.44,271.68,1.16,280.49,1.07,281.80,1.02,288.58,.92,300.95,.75,315.65,.47,318.29,.46,320.16,.38,313.20,.43,300.97,.41,286.64,.08,272.62
2019.02.09-18:00,1.24,275.36,1.48,280.99,1.75,273.93,1.79,266.94,1.43,271.11,1.15,281.86,1.06,283.24,1.02,291.51,.95,304.41,.78,317.23,.51,316.91,.50,316.40,.41,309.31,.45,297.37,.43,284.45,.09,269.39
2019.02.09-19:00,1.16,262.76,1.37,273.14,1.75,273.42,1.81,267.39,1.43,270.95,1.14,283.36,1.02,284.06,.99,293.96,.97,308.28,.82,318.17,.56,317.12,.52,314.88,.44,308.69,.46,295.49,.44,282.80,.10,265.66
2019.02.09-20:00,1.21,251.72,1.37,264.28,1.74,273.50,1.84,269.14,1.46,271.18,1.13,284.53,.98,284.13,.96,295.57,.96,311.56,.86,319.39,.60,319.14,.53,315.32,.45,310.34,.46,295.15,.44,281.74,.10,262.91
2019.02.09-21:00,1.35,246.72,1.45,258.04,1.72,273.61,1.89,272.62,1.53,272.86,1.13,285.64,.97,283.88,.94,295.98,.93,313.47,.87,321.32,.64,322.48,.52,317.58,.46,313.69,.44,296.39,.42,281.63,.09,260.54
2019.02.09-22:00,1.50,247.22,1.59,256.20,1.72,273.28,1.94,276.75,1.58,276.09,1.12,286.95,.99,284.80,.94,296.22,.90,313.97,.86,322.93,.67,325.28,.51,321.13,.46,318.25,.42,299.15,.40,282.39,.08,256.87
2019.02.09-23:00,1.67,251.31,1.76,257.96,1.77,272.71,1.98,280.61,1.62,280.38,1.11,287.59,1.02,286.87,.96,296.67,.90,313.93,.86,323.64,.68,326.61,.51,325.48,.47,322.80,.39,302.78,.35,283.34,.07,250.44
2019.02.09-24:00,1.83,255.91,1.92,260.92,1.81,271.95,1.98,283.63,1.67,285.01,1.13,287.82,1.06,289.32,.98,296.98,.90,314.25,.86,323.98,.67,326.30,.52,329.03,.49,325.01,.38,304.81,.32,282.39,.07,241.17
2019.02.10-01:00,1.99,259.87,2.06,263.78,1.86,270.74,1.93,284.82,1.70,288.33,1.19,288.17,1.11,291.43,1.00,296.18,.89,313.81,.85,324.09,.64,324.56,.52,330.39,.50,324.22,.37,302.95,.31,277.18,.08,232.62
2019.02.10-02:00,2.14,263.49,2.19,266.74,1.95,270.41,1.90,284.20,1.72,289.38,1.27,288.25,1.20,292.31,1.04,294.18,.86,310.90,.82,323.02,.62,321.85,.51,329.33,.50,321.23,.37,296.88,.31,266.70,.10,224.87
2019.02.10-03:00,2.22,268.70,2.25,271.40,2.04,272.51,1.90,283.20,1.76,288.81,1.34,287.41,1.28,291.41,1.10,292.56,.88,306.21,.80,319.64,.61,317.95,.49,325.16,.48,315.63,.36,286.45,.35,253.14,.13,218.93
2019.02.10-04:00,2.24,275.67,2.27,278.26,2.06,275.97,1.87,281.45,1.77,287.58,1.41,285.32,1.32,288.99,1.17,292.23,.96,302.18,.81,314.71,.62,313.23,.47,317.88,.47,306.87,.38,272.98,.44,241.77,.17,215.92
2019.02.10-05:00,2.20,281.92,2.22,284.89,1.98,278.67,1.84,278.35,1.75,285.96,1.52,282.96,1.33,285.84,1.23,292.95,1.05,300.19,.83,310.07,.62,308.02,.47,308.51,.48,296.13,.44,261.34,.56,236.25,.21,216.01
2019.02.10-06:00,2.11,283.78,2.13,287.33,1.88,278.63,1.82,274.59,1.74,283.94,1.63,281.61,1.33,282.92,1.26,293.71,1.14,299.59,.86,305.90,.62,302.34,.48,299.87,.50,287.32,.51,254.65,.68,234.95,.24,217.32
2019.02.10-07:00,2.07,280.30,2.08,284.57,1.89,276.20,1.88,271.66,1.75,281.38,1.67,280.90,1.32,280.56,1.25,294.30,1.18,299.43,.87,302.01,.62,297.24,.50,294.08,.53,282.49,.56,252.53,.76,236.20,.26,218.71
2019.02.10-08:00,2.12,274.85,2.09,279.72,1.99,274.71,1.98,271.14,1.75,278.46,1.61,280.11,1.31,278.29,1.21,293.82,1.14,298.45,.84,297.65,.63,293.32,.51,290.99,.56,281.36,.59,254.71,.80,239.92,.26,221.06
2019.02.10-09:00,2.26,272.29,2.20,276.40,2.05,274.69,2.02,271.65,1.72,274.93,1.54,279.36,1.33,277.13,1.15,291.95,1.08,296.32,.83,293.03,.63,290.14,.51,289.00,.56,281.38,.59,258.03,.80,243.74,.25,222.51
2019.02.10-10:00,2.41,274.21,2.37,276.49,2.05,273.32,2.01,271.76,1.72,271.56,1.49,278.85,1.34,277.73,1.13,289.86,1.04,294.13,.84,289.51,.63,287.29,.49,286.85,.53,280.91,.56,260.83,.76,246.48,.23,221.96
2019.02.10-11:00,2.48,276.40,2.44,278.27,2.13,272.63,2.06,273.74,1.76,270.23,1.41,277.64,1.30,279.00,1.10,287.88,.99,291.78,.84,286.53,.63,284.78,.48,284.11,.51,280.36,.54,263.97,.72,249.42,.21,221.60
2019.02.10-12:00,2.57,278.33,2.55,280.23,2.27,274.20,2.04,275.63,1.78,270.25,1.35,275.96,1.27,280.39,1.10,285.90,.94,288.69,.83,283.33,.63,282.10,.47,280.76,.49,279.59,.51,266.42,.68,251.91,.20,220.98
2019.02.10-13:00,2.68,281.53,2.68,282.69,2.36,276.68,2.02,275.60,1.81,270.73,1.33,273.76,1.26,281.33,1.12,284.57,.91,285.31,.81,280.06,.62,279.28,.47,276.82,.49,277.79,.49,266.88,.65,253.11,.19,219.60
2019.02.10-14:00,2.70,283.23,2.65,284.36,2.40,277.57,2.09,275.33,1.85,272.08,1.33,270.47,1.22,280.41,1.12,283.35,.88,281.61,.81,276.91,.63,276.97,.50,273.45,.51,275.53,.49,265.86,.65,253.35,.19,218.33
2019.02.10-15:00,2.56,282.55,2.48,284.05,2.38,277.00,2.13,274.27,1.88,273.75,1.39,267.96,1.21,277.98,1.13,281.68,.90,277.93,.83,274.44,.66,275.40,.53,270.95,.53,273.22,.49,263.47,.64,251.91,.19,215.14
2019.02.10-16:00,2.34,281.41,2.26,282.04,2.36,277.02,2.18,273.76,1.89,275.76,1.47,267.00,1.22,274.98,1.12,279.04,.93,273.76,.87,272.34,.69,274.23,.57,269.34,.55,271.43,.50,260.66,.64,249.50,.19,211.48
2019.02.10-17:00,2.13,280.06,2.05,280.00,2.28,278.54,2.21,274.86,1.86,277.38,1.53,267.15,1.25,272.27,1.13,275.73,.98,269.97,.93,270.64,.73,273.03,.62,268.51,.58,270.12,.52,257.75,.64,246.28,.20,208.22
2019.02.10-18:00,1.93,278.85,1.86,278.61,2.10,280.55,2.18,277.03,1.82,278.45,1.59,268.77,1.31,270.24,1.16,272.67,1.06,267.90,.98,269.63,.77,271.62,.66,268.16,.60,268.99,.54,254.72,.66,242.31,.21,205.46
2019.02.10-19:00,1.67,278.26,1.64,278.03,1.84,281.84,2.08,280.15,1.77,279.35,1.61,271.40,1.37,268.51,1.20,270.24,1.13,267.47,1.03,269.51,.81,270.33,.70,268.31,.62,268.06,.58,252.49,.70,239.07,.23,205.16
2019.02.10-20:00,1.59,275.74,1.60,275.10,1.74,278.67,2.02,280.63,1.75,278.21,1.61,272.27,1.43,267.70,1.24,268.63,1.18,268.64,1.06,270.84,.81,270.10,.70,269.75,.60,267.71,.59,251.08,.71,236.03,.24,205.03
2019.02.10-21:00,1.69,275.06,1.70,273.83,1.83,275.03,2.03,279.60,1.76,276.94,1.63,272.96,1.51,268.53,1.27,268.18,1.20,270.81,1.07,272.62,.79,269.75,.67,270.41,.55,265.70,.57,248.91,.71,232.42,.24,204.31
2019.02.10-22:00,1.85,274.30,1.85,271.95,2.02,272.82,2.10,278.24,1.77,276.14,1.64,274.04,1.54,270.05,1.28,268.46,1.18,272.68,1.05,274.00,.77,269.21,.63,270.06,.50,262.54,.55,247.39,.70,230.08,.24,204.73
2019.02.10-23:00,2.03,271.95,2.04,268.42,2.20,272.44,2.16,277.64,1.77,276.25,1.61,275.60,1.55,271.88,1.29,269.72,1.16,273.74,1.02,274.52,.75,268.51,.60,268.43,.47,258.26,.53,246.14,.69,228.99,.23,205.85
2019.02.10-24:00,2.21,268.90,2.27,266.00,2.31,272.37,2.17,277.40,1.77,277.12,1.57,276.99,1.56,274.41,1.29,272.19,1.14,274.58,.99,274.23,.75,267.74,.59,265.97,.45,252.75,.50,243.94,.68,228.12,.22,206.49